TimeEDT,TemperatureF,Dew PointF,Humidity,Sea Level PressureIn,VisibilityMPH,Wind Direction,Wind SpeedMPH,Gust SpeedMPH,PrecipitationIn,Events,Conditions,WindDirDegrees,DateUTC
12:03 AM,71.6,66.2,83,30.04,4.0,West,4.6,-,0.01,Rain,Rain,260,2013-08-06 04:03:00
12:53 AM,70.0,68.0,93,29.98,5.0,Calm,Calm,-,0.02,,Overcast,0,2013-08-06 04:53:00
1:50 AM,69.8,66.2,88,30.03,9.0,SSW,3.5,-,N/A,,Overcast,200,2013-08-06 05:50:00
1:53 AM,70.0,66.0,87,29.97,9.0,Calm,Calm,-,N/A,,Overcast,0,2013-08-06 05:53:00
2:53 AM,70.0,66.9,90,29.96,9.0,South,3.5,-,0.01,,Overcast,190,2013-08-06 06:53:00
3:12 AM,69.8,66.2,88,30.02,8.0,South,3.5,-,N/A,,Mostly Cloudy,180,2013-08-06 07:12:00
3:53 AM,70.0,66.9,90,29.94,8.0,South,4.6,-,N/A,,Clear,190,2013-08-06 07:53:00
4:27 AM,69.8,66.2,88,30.02,10.0,SSW,8.1,16.1,N/A,,Mostly Cloudy,200,2013-08-06 08:27:00
4:39 AM,69.8,64.4,83,30.01,10.0,SSW,9.2,-,N/A,,Mostly Cloudy,200,2013-08-06 08:39:00
4:53 AM,69.1,64.9,87,29.95,10.0,South,6.9,-,N/A,,Mostly Cloudy,190,2013-08-06 08:53:00
5:53 AM,68.0,64.0,87,29.96,10.0,Calm,Calm,-,N/A,,Overcast,0,2013-08-06 09:53:00
6:53 AM,66.9,64.0,90,29.98,7.0,Calm,Calm,-,N/A,,Overcast,0,2013-08-06 10:53:00
7:53 AM,68.0,64.9,90,29.99,8.0,Calm,Calm,-,0.00,Rain,Light Rain,0,2013-08-06 11:53:00
8:15 AM,68.0,64.4,88,30.06,8.0,Calm,Calm,-,0.00,Rain,Light Rain,0,2013-08-06 12:15:00
8:39 AM,68.0,64.4,88,30.07,7.0,Calm,Calm,-,0.00,,Overcast,0,2013-08-06 12:39:00
8:53 AM,69.1,66.0,90,30.00,8.0,Variable,3.5,-,0.00,Rain,Light Rain,0,2013-08-06 12:53:00
9:12 AM,69.8,66.2,88,30.07,8.0,South,3.5,-,0.00,,Overcast,180,2013-08-06 13:12:00
9:53 AM,70.0,66.0,87,30.01,9.0,Calm,Calm,-,0.00,,Overcast,0,2013-08-06 13:53:00
10:53 AM,71.1,66.9,87,30.02,10.0,South,3.5,-,N/A,,Overcast,190,2013-08-06 14:53:00
11:53 AM,72.0,66.9,84,30.02,10.0,Calm,Calm,-,N/A,,Overcast,0,2013-08-06 15:53:00
12:53 PM,71.1,66.9,87,30.03,8.0,Calm,Calm,-,N/A,,Overcast,0,2013-08-06 16:53:00
1:53 PM,72.0,66.9,84,30.01,8.0,Calm,Calm,-,N/A,,Overcast,0,2013-08-06 17:53:00
2:38 PM,73.4,66.2,78,30.07,9.0,Variable,4.6,-,N/A,,Overcast,0,2013-08-06 18:38:00
2:53 PM,73.0,68.0,84,30.01,9.0,Calm,Calm,-,N/A,,Overcast,0,2013-08-06 18:53:00
3:26 PM,75.2,68.0,78,30.06,10.0,Calm,Calm,-,N/A,,Overcast,0,2013-08-06 19:26:00
3:53 PM,73.9,68.0,82,30.00,10.0,Variable,3.5,-,N/A,,Overcast,0,2013-08-06 19:53:00
4:53 PM,75.9,69.1,79,29.99,10.0,Variable,3.5,-,N/A,,Scattered Clouds,0,2013-08-06 20:53:00
5:05 PM,75.2,69.8,83,30.04,10.0,Variable,4.6,-,N/A,,Mostly Cloudy,0,2013-08-06 21:05:00
5:19 PM,75.2,68.0,78,30.04,10.0,Variable,4.6,-,N/A,,Scattered Clouds,0,2013-08-06 21:19:00
5:53 PM,75.9,68.0,76,29.99,10.0,Calm,Calm,-,N/A,,Mostly Cloudy,0,2013-08-06 21:53:00
6:20 PM,75.2,68.0,78,30.06,10.0,Variable,4.6,-,N/A,,Overcast,0,2013-08-06 22:20:00
6:31 PM,75.2,68.0,78,30.06,10.0,Variable,4.6,-,N/A,,Mostly Cloudy,0,2013-08-06 22:31:00
6:46 PM,75.2,69.8,83,30.06,10.0,Variable,3.5,-,N/A,,Scattered Clouds,0,2013-08-06 22:46:00
6:53 PM,73.9,68.0,82,30.00,10.0,South,5.8,-,N/A,,Mostly Cloudy,180,2013-08-06 22:53:00
7:07 PM,73.4,66.2,78,30.06,10.0,Calm,Calm,-,N/A,,Mostly Cloudy,0,2013-08-06 23:07:00
7:53 PM,72.0,66.9,84,30.00,9.0,Calm,Calm,-,N/A,,Mostly Cloudy,0,2013-08-06 23:53:00
8:45 PM,71.6,66.2,83,30.07,10.0,Calm,Calm,-,N/A,,Overcast,0,2013-08-07 00:45:00
8:53 PM,72.0,66.9,84,30.01,10.0,Calm,Calm,-,N/A,,Overcast,0,2013-08-07 00:53:00
9:10 PM,71.6,68.0,88,30.07,10.0,Calm,Calm,-,N/A,,Overcast,0,2013-08-07 01:10:00
9:21 PM,71.6,66.2,83,30.07,10.0,Variable,4.6,-,N/A,,Overcast,0,2013-08-07 01:21:00
9:29 PM,71.6,66.2,83,30.07,10.0,Calm,Calm,-,N/A,,Overcast,0,2013-08-07 01:29:00
9:53 PM,71.1,66.9,87,30.02,10.0,South,3.5,-,N/A,,Overcast,190,2013-08-07 01:53:00
10:53 PM,71.1,66.9,87,30.04,10.0,South,3.5,-,N/A,,Overcast,190,2013-08-07 02:53:00
11:53 PM,71.1,66.9,87,30.03,10.0,SW,3.5,-,N/A,,Overcast,230,2013-08-07 03:53:00